Simultaneous Nadir Overpasses (SNOs) Predictions

Prediction of SNOs between AQUA and METOP-B Satellite Orbit:

Table of predicted SNOs for the next 14.0 days since TLE Epoch: 6/1/2019
Index Date (AQUA) Time (AQUA) Lat,Lon (AQUA) SZA (AQUA ) Date (METOP-B) Time (METOP-B) Lat,Lon (METOP-B) SZA (METOP-B ) Distance(km) Time Diff (sec)
1 06/03/2019 02:50:37 73.39, 132.54 51.09 06/03/2019 02:49:29 73.35, 130.62 51.12 61.49 68
2 06/03/2019 03:40:12 -73.89, -60.90 128.39 06/03/2019 03:40:01 -73.86, -60.88 128.42 3.30 11
3 06/03/2019 04:29:40 73.90, 106.70 51.63 06/03/2019 04:30:39 73.93, 106.62 51.64 3.48 59
4 06/05/2019 22:24:58 73.72,-161.74 51.12 06/05/2019 22:23:46 73.64,-162.31 51.07 20.19 72
5 06/05/2019 23:14:26 -73.85, 5.62 128.75 06/05/2019 23:14:24 -73.85, 5.52 128.75 3.34 2
6 06/06/2019 00:03:55 73.93, 173.09 51.33 06/06/2019 00:05:02 73.92, 173.01 51.32 2.71 67
7 06/08/2019 17:59:14 73.80, -95.48 50.93 06/08/2019 17:58:05 73.83, -95.46 50.97 2.80 69
8 06/08/2019 18:48:41 -73.87, 72.02 129.00 06/08/2019 18:48:46 -73.89, 72.02 128.98 2.69 5
9 06/08/2019 19:38:11 74.01,-120.65 51.15 06/08/2019 19:39:23 74.01,-120.37 51.13 8.74 72
10 06/11/2019 13:33:28 73.84, -29.11 50.75 06/11/2019 13:32:27 73.82, -29.08 50.74 2.24 61
11 06/11/2019 14:22:55 -73.89, 138.41 129.19 06/11/2019 14:23:08 -73.88, 138.40 129.20 1.00 13
12 06/11/2019 15:12:30 74.30, -54.88 51.24 06/11/2019 15:13:39 74.29, -53.25 51.18 49.15 69
13 06/14/2019 09:07:42 73.82, 37.37 50.57 06/14/2019 09:06:50 73.80, 37.29 50.57 2.97 52
14 06/14/2019 09:57:10 -73.92,-155.21 129.33 06/14/2019 09:57:30 -73.92,-155.10 129.33 3.40 20




NCC Satellite Simultaneous Nadir Overpasses (SNOs) Prediction Service
